Terminal Aerodrome Forecast
Issued by NWS Greer, SC

Home | Current Version | Previous Version | Text Only | Print | Product List | Glossary On
Versions: 1 2 3 4 5 6 7 8 9 10 11 12 13 14 15 16 17 18 19 20 21 22 23 24 25 26 27 28 29 30 31 32 33 34 35 36
000
FTUS42 KGSP 230533 CCB
TAFGSP
TAF COR
KGSP 230533Z 2306/2406 15012G20KT 3SM SHRA VCTS BKN008CB
     FM230700 19011G18KT P6SM -SHRA BKN010
     FM230800 20010KT 5SM BR BKN010
     FM231100 19007KT 4SM BR VCSH OVC008
      TEMPO 2311/2314 2SM -SHRA BR BKN003
     FM231400 24005KT P6SM BKN008 PROB30 2316/2321 2SM -SHRA OVC003
     FM232100 28011G18KT P6SM BKN035
     FM240000 30010G17KT P6SM SCT060=

USA.gov is the U.S. government's official web portal to all federal, state and local government web resources and services.